User: anonymous   Login
Location: Chiroubles
(46.1812°N, 4.6660°E)
Time: 11:21:12
(UTC+00:00)
Language:

Cosmos 1805 Rocket - Orbit

View from above orbital plane
View from above orbital plane
View from above satellite
View from above satellite

Ground track
Ground track

The orbit data is extracted from the following two-line orbital elements,

1 17192U 86097B   20299.95333074 +.00000087 +00000-0 +75851-5 0  9992
2 17192 082.5086 185.0168 0017577 022.3248 348.1573 14.83617401809472
Epoch (UTC): 25 October 2020 22:52:47
Eccentricity: 0.0017577
inclination: 82.5086°
perigee height: 605 km
apogee height: 630 km
right ascension of ascending node: 185.0168°
argument of perigee: 22.3248°
revolutions per day: 14.83617401
mean anomaly at epoch: 348.1573°
orbit number at epoch: 80947

The dashed part of the orbit path shows where the satellite is in the earth's shadow,  

DLR